RH
19 18 19 21 24 24 21 21 20 19 17 18 17 14 14 17 18 18 18 18 18 17 17 17 15 14 14 15 15 16 18 16 12 16 21 22 18 15 15 12 8 10 12 15 20 23 18 11 10 9 10 10 10 12 12 11 13 18 22 26 28 24 24 22 18 19 18 16 15 12 12 15 19 23 21 20 26 29 29 26 22 22 21 21 22 21 22 22
19 19 20 22 24 23 21 20 19 17 16 16 17 16 14 15 17 17 18 17 17 17 16 17 15 15 14 14 15 14 16 15 10 14 19 16 14 14 13 8 9 11 12 16 19 17 12 8 8 8 7 9 10 11 13 13 13 19 21 24 27 21 19 16 13 13 12 14 13 13 12 12 17 20 19 21 30 36 37 35 27 23 22 21 20 20 20 19
19 19 20 23 24 23 20 20 19 17 16 16 15 16 17 15 15 16 16 15 15 15 15 16 14 13 12 13 15 14 17 16 11 14 15 14 13 12 10 7 9 12 13 19 19 13 11 11 9 7 8 10 11 12 15 15 16 20 20 22 22 16 16 12 11 12 11 12 11 12 11 11 18 23 25 26 33 40 41 39 32 26 23 20 19 18 18 18
19 19 20 23 24 22 20 19 19 18 17 17 15 15 17 16 15 14 14 14 14 15 16 16 15 13 11 12 13 13 19 17 12 14 14 14 14 11 8 7 9 11 12 16 18 14 12 11 9 9 11 14 14 13 14 15 18 20 18 20 17 13 15 12 12 13 11 11 11 12 12 14 24 30 30 30 37 42 35 31 30 25 22 19 18 18 18 19
20 19 20 22 23 21 19 19 19 18 17 17 15 13 16 17 14 12 13 14 13 13 14 16 17 16 11 12 13 14 19 19 14 14 14 14 13 9 7 8 10 9 9 14 17 14 11 9 8 12 14 15 17 15 14 14 17 20 17 15 14 12 15 14 11 13 13 12 11 13 13 13 24 33 33 34 40 40 31 27 26 22 20 18 18 19 20 20
20 19 20 22 23 20 18 18 18 17 17 16 14 13 14 16 13 13 13 12 9 8 12 14 17 18 15 13 15 16 19 19 16 13 14 14 10 9 8 9 10 9 9 11 12 10 8 7 10 15 15 16 18 16 16 15 15 21 18 13 14 13 14 13 9 12 14 13 13 12 11 12 25 36 35 37 39 34 27 24 24 22 19 19 19 19 20 20
21 19 19 21 21 19 18 18 17 16 16 15 15 14 14 14 13 13 11 9 8 7 10 13 15 16 16 16 14 13 15 15 14 13 14 11 8 8 8 9 9 9 9 9 9 8 8 9 12 15 16 18 19 16 18 16 15 21 21 14 14 13 12 12 9 10 14 14 12 10 12 19 31 36 33 35 35 29 26 23 23 22 21 20 21 21 20 20
21 20 19 20 20 18 18 18 17 17 15 13 14 14 14 14 12 11 10 10 10 8 10 11 12 13 14 20 18 12 13 14 13 14 14 10 8 8 8 9 10 8 9 10 9 7 9 11 12 14 16 18 18 20 22 19 21 23 20 15 13 12 10 9 9 9 12 13 11 11 17 26 30 30 31 31 27 24 22 21 21 20 20 20 21 22 21 21
20 20 19 19 18 17 17 18 18 17 15 14 15 15 14 13 12 11 10 11 10 10 11 10 12 12 11 17 18 13 13 13 13 14 13 12 10 8 7 9 10 8 8 10 10 9 10 12 12 12 16 17 17 24 23 19 24 24 20 16 11 11 9 8 10 10 11 12 13 12 17 28 27 26 30 26 22 20 18 18 18 18 19 19 20 20 19 20
20 19 18 18 18 17 17 17 17 15 15 16 16 16 14 13 13 13 10 9 9 10 11 11 12 12 12 14 14 12 13 13 14 13 13 16 12 7 7 9 10 8 7 9 11 11 11 11 11 12 17 20 20 23 21 19 23 20 19 19 14 11 9 9 11 11 11 12 15 14 17 26 24 29 33 24 19 18 17 18 17 18 18 18 19 18 18 18
20 19 18 19 17 16 17 17 17 15 14 15 15 15 14 13 14 14 10 8 9 9 9 9 9 9 9 10 11 12 12 13 14 12 14 16 14 9 8 10 11 8 7 8 11 13 14 13 11 15 21 22 23 21 18 20 24 17 16 23 20 11 9 10 12 13 12 13 15 13 20 27 26 32 34 22 18 17 17 18 17 18 18 17 18 18 18 19
21 19 18 18 17 16 17 17 16 14 14 14 14 13 13 13 14 14 11 9 10 10 10 11 12 13 10 10 12 11 13 14 13 12 13 15 15 10 8 12 12 9 8 9 13 15 17 15 12 19 24 22 26 27 22 19 19 16 17 24 20 12 13 12 13 14 14 15 14 14 25 35 34 34 29 20 18 17 17 18 18 18 17 17 18 18 20 21
20 19 18 17 16 16 17 16 15 14 14 14 13 13 13 11 11 12 11 10 10 11 11 11 13 14 13 13 13 11 13 13 12 12 11 13 15 11 9 11 11 11 9 10 14 15 16 14 13 20 22 24 28 28 27 20 16 17 19 23 21 20 20 13 14 15 14 16 13 19 33 39 36 32 26 21 17 17 18 18 18 17 17 18 18 19 21 22
20 18 17 16 16 17 16 15 14 14 14 14 13 11 10 9 9 10 10 9 9 10 12 12 12 12 13 15 11 11 13 11 11 12 11 12 14 11 9 10 10 10 9 9 11 12 14 12 12 16 18 26 31 29 28 21 16 20 23 25 25 29 25 15 16 16 17 18 13 23 36 36 36 32 25 20 17 17 19 18 18 18 17 18 19 20 20 22
19 17 16 16 17 16 15 14 15 15 14 13 12 10 9 10 10 9 8 9 9 11 15 17 14 13 16 14 9 11 12 11 12 11 12 13 14 13 11 10 9 9 9 10 10 11 13 12 12 15 16 22 30 33 30 21 17 22 30 33 28 30 28 18 16 16 19 19 15 26 36 32 33 32 25 20 17 17 18 19 18 18 18 18 18 18 19 20
17 16 16 16 16 15 14 15 14 14 13 12 12 11 10 11 11 10 9 10 11 13 17 19 14 12 17 13 9 11 11 11 12 11 13 13 14 16 12 9 9 8 8 9 10 11 12 16 18 17 16 18 23 28 28 26 26 26 32 37 30 30 30 22 17 15 20 23 22 28 33 30 31 31 26 21 18 17 18 19 19 18 18 17 18 17 18 20
16 15 14 13 14 14 13 12 12 12 13 12 12 12 11 12 11 10 9 10 11 12 14 17 13 12 15 12 10 11 11 11 11 11 13 13 14 16 13 10 9 8 8 10 12 11 11 17 22 20 17 19 23 26 31 36 36 32 35 35 28 27 29 26 22 18 22 30 31 28 27 27 31 31 27 23 19 18 19 20 20 19 19 19 19 18 19 22
15 13 12 13 13 13 12 11 12 12 13 13 12 11 11 13 12 11 13 16 18 17 16 15 17 20 17 12 11 12 11 11 11 11 13 13 13 15 14 12 11 7 7 12 15 14 14 16 19 21 22 23 27 33 39 42 40 39 41 37 30 28 28 28 25 22 25 30 32 28 25 26 30 29 29 26 20 19 20 19 20 19 19 20 20 21 22 24
14 13 12 13 12 11 11 12 13 12 13 13 15 15 14 17 16 14 16 20 26 29 27 23 21 23 19 13 12 12 12 11 11 11 13 14 13 14 14 12 12 12 15 20 20 17 18 21 22 26 32 31 30 36 37 35 36 40 42 36 32 33 30 26 23 24 27 29 28 28 26 26 30 31 30 28 21 20 20 19 21 20 20 20 20 23 25 26
14 13 13 12 11 11 12 12 12 11 11 12 18 22 24 27 22 19 23 23 24 27 28 26 19 17 15 13 13 13 13 11 10 12 13 15 14 13 13 13 15 19 26 32 27 19 20 29 34 33 35 31 29 31 28 26 31 36 36 31 31 35 31 24 23 24 27 31 29 25 25 27 31 32 31 29 23 21 21 21 22 21 21 22 23 26 28 27
14 13 12 12 11 11 11 11 11 12 12 13 21 27 33 39 29 23 29 29 24 21 20 20 15 13 14 13 14 15 15 11 10 12 14 15 14 14 16 17 21 23 29 36 31 23 22 33 38 30 28 29 32 33 27 29 33 31 29 29 32 34 28 24 26 26 25 31 32 24 25 31 32 31 29 27 24 22 22 21 22 22 22 25 27 28 29 28
13 13 12 10 11 12 11 11 12 16 21 22 25 28 32 38 31 24 28 28 29 23 17 17 13 13 15 12 14 15 14 13 12 13 15 15 15 22 26 21 24 26 26 31 31 26 29 34 30 23 26 31 36 35 29 32 34 27 25 31 35 32 30 29 28 28 24 28 32 26 28 34 30 29 28 25 25 23 23 23 23 23 25 27 28 29 29 28
13 11 10 11 12 12 11 12 12 18 29 28 24 26 26 25 22 25 29 27 31 29 21 21 17 14 15 13 16 15 14 17 17 14 15 17 18 27 32 26 27 29 25 26 27 27 32 30 23 25 33 35 33 32 32 33 33 30 29 35 37 32 37 38 31 29 27 31 34 26 30 38 32 29 28 25 26 25 26 28 29 30 30 29 28 29 30 29
12 10 11 12 10 12 11 13 13 13 22 21 16 20 20 19 17 24 32 29 32 32 23 22 18 16 17 15 17 18 17 18 17 15 16 20 24 26 29 30 32 33 32 32 29 31 34 24 22 34 36 30 29 32 35 34 32 34 34 34 34 33 36 36 33 31 27 35 40 29 30 39 37 34 33 30 29 27 28 30 30 32 31 30 31 31 30 29
10 9 11 10 10 12 10 15 15 11 20 20 15 16 13 16 15 17 32 32 29 31 28 25 19 16 18 16 18 20 21 20 16 16 18 21 28 29 30 31 30 34 40 38 32 34 35 24 25 36 31 25 31 34 35 34 33 35 35 31 31 32 34 34 35 36 34 36 37 30 33 40 37 35 35 34 32 29 31 32 31 30 29 32 34 30 29 26
10 10 11 10 13 12 12 22 15 11 30 29 17 15 13 17 14 16 35 34 25 30 32 27 20 19 19 16 20 24 26 26 17 15 20 22 28 34 35 30 27 36 42 38 33 33 32 26 27 33 29 29 32 31 31 33 37 37 33 31 32 33 38 39 38 43 45 39 30 27 34 40 38 36 35 35 35 30 31 33 32 30 31 34 33 29 27 22
11 12 12 12 14 12 21 29 14 16 41 33 13 13 15 17 14 21 39 35 28 32 30 24 20 21 21 17 21 26 31 32 21 15 20 23 24 30 37 34 32 38 39 40 39 35 34 33 34 35 31 30 31 30 28 29 38 39 30 31 34 35 40 42 42 45 40 32 30 28 29 34 36 35 34 33 36 35 33 35 33 32 35 35 33 30 25 21
11 11 10 12 12 12 20 20 14 30 42 26 12 15 17 15 16 31 41 32 27 28 26 27 22 18 23 22 21 26 31 32 27 21 19 22 22 27 36 37 37 39 42 46 41 37 39 36 40 43 34 29 30 29 27 28 36 36 30 32 34 36 40 40 43 41 30 33 40 29 26 37 36 33 37 38 36 38 37 38 37 36 38 37 35 30 21 16
9 9 9 9 9 11 14 12 21 36 27 12 14 17 15 16 24 39 38 26 27 28 27 30 24 21 30 32 28 29 31 29 31 27 22 22 19 24 37 38 38 40 41 44 42 40 39 34 42 46 33 29 31 28 27 30 33 31 31 34 33 36 38 38 40 33 31 44 45 28 25 40 40 31 36 40 38 40 43 42 42 41 40 39 35 28 20 15
8 9 8 10 13 14 14 14 20 24 16 13 18 16 16 25 34 37 26 23 33 37 35 32 27 29 37 39 34 33 34 33 33 30 28 28 22 25 38 40 40 41 39 41 45 44 39 40 48 43 31 29 30 30 31 33 33 32 33 31 30 32 29 30 30 27 38 45 36 27 25 38 48 35 30 40 43 47 52 48 45 44 42 39 32 23 20 18
10 11 9 13 21 20 25 29 19 14 17 17 17 19 27 37 37 28 22 31 40 38 38 40 38 37 39 39 35 33 38 36 33 36 35 32 28 28 33 37 41 41 36 38 45 49 47 48 49 41 35 34 32 30 32 36 37 35 32 27 32 33 24 27 28 30 46 45 30 26 24 37 52 40 35 48 48 46 51 50 48 47 41 35 28 21 18 18
11 14 12 14 19 18 29 36 19 14 20 17 20 31 39 38 30 25 27 36 41 38 41 47 42 37 38 38 35 37 41 35 31 40 43 35 35 38 36 39 46 44 34 31 38 47 48 45 44 44 40 35 32 28 27 36 36 29 27 30 42 44 37 42 41 41 51 45 31 27 30 43 44 33 38 47 45 43 45 47 48 44 37 31 26 21 20 20
13 16 15 16 18 16 23 24 15 18 20 17 27 38 37 28 27 35 32 29 38 44 47 48 39 35 39 37 36 40 40 37 36 38 39 35 35 42 41 39 46 45 37 31 30 36 43 42 41 44 40 30 27 24 27 34 33 27 28 35 49 51 53 59 52 51 54 42 31 28 37 50 39 30 38 38 38 42 42 46 46 38 33 29 24 21 20 20
16 17 18 20 21 20 21 18 18 22 18 23 37 38 30 23 28 39 34 30 40 46 47 45 36 36 40 35 33 39 38 39 42 38 34 30 27 34 38 38 43 44 41 37 31 33 43 44 40 40 35 27 27 28 31 36 36 31 24 30 47 48 53 62 56 58 61 49 41 35 38 47 41 36 38 31 33 38 40 45 42 34 30 27 23 20 18 19
17 17 17 19 21 23 23 22 23 20 20 34 41 33 28 25 26 31 33 37 40 41 47 47 39 36 38 35 34 40 44 42 40 39 34 29 29 33 34 37 41 44 49 48 39 36 40 40 40 39 30 25 29 29 31 37 37 29 23 32 48 43 40 53 53 48 57 62 54 42 38 37 34 37 37 32 35 38 39 38 32 30 28 23 22 19 17 18
19 21 19 18 20 23 23 25 23 17 26 43 40 33 34 31 31 36 44 48 42 40 46 45 42 34 29 34 34 36 46 43 35 34 34 34 37 35 36 40 42 44 50 49 41 39 41 40 40 40 32 25 26 29 34 39 34 27 31 38 41 36 33 51 58 42 49 69 56 39 42 38 35 41 36 33 38 37 34 31 27 28 25 20 19 16 16 18
22 24 21 16 17 20 21 23 21 20 35 48 39 34 35 33 39 48 54 54 48 45 39 32 40 38 24 27 30 30 39 42 35 30 31 38 43 38 38 43 42 39 43 49 47 39 41 45 41 40 41 32 27 33 37 40 37 32 36 36 34 41 38 43 60 57 61 73 55 40 50 52 53 54 38 32 38 33 27 27 25 24 22 19 16 13 15 17
25 25 26 18 13 18 21 19 18 25 41 47 40 35 34 39 47 53 58 57 51 46 34 27 40 41 26 23 25 28 35 37 32 28 27 34 42 43 41 41 44 40 38 50 52 38 40 51 42 33 41 37 31 36 36 36 41 36 33 32 35 54 58 45 54 70 78 79 62 48 52 54 57 53 39 35 38 32 27 25 23 23 22 19 14 12 14 17
26 32 37 22 10 16 19 16 21 33 40 40 40 38 39 50 56 57 63 63 54 45 34 31 38 36 30 32 29 30 37 34 28 27 28 31 40 46 42 39 45 45 40 46 48 38 40 50 43 31 35 37 31 35 36 36 42 39 34 34 34 45 55 48 49 62 72 80 74 64 60 54 46 38 35 36 35 30 27 25 24 24 22 18 14 12 13 17
31 40 40 17 9 17 19 23 35 45 45 40 42 42 45 56 62 62 66 66 56 44 34 32 33 30 32 39 35 32 36 34 27 27 28 30 38 44 44 41 42 44 45 44 41 38 38 43 45 38 36 38 33 32 29 28 36 41 40 42 42 42 47 51 53 53 61 75 80 78 73 56 35 29 31 31 28 27 25 24 25 24 21 17 12 12 14 16
29 41 42 17 10 17 22 33 40 39 39 38 42 48 51 57 62 65 69 73 64 50 43 40 36 32 32 35 36 34 32 27 26 28 28 30 36 43 54 59 52 48 49 44 40 42 40 39 44 43 38 37 34 29 27 26 29 34 38 42 44 47 53 61 62 58 61 69 71 77 80 59 35 28 27 24 24 25 23 24 26 24 21 15 11 13 15 16
30 40 37 16 10 19 33 45 42 34 38 45 51 56 56 54 59 64 67 71 65 51 46 46 41 38 37 37 37 36 33 28 27 29 30 34 41 51 65 70 62 55 51 46 42 41 42 45 49 47 39 35 33 27 31 38 33 29 32 34 38 48 54 59 64 63 65 63 56 68 81 62 34 24 22 22 24 24 24 25 26 24 20 15 12 13 15 15
41 38 27 15 12 22 39 49 47 45 49 54 57 57 54 50 51 57 58 58 55 44 42 47 47 45 44 42 37 34 36 32 30 33 32 35 52 69 74 72 66 56 49 48 45 42 47 51 51 49 39 33 33 28 29 38 36 32 33 30 40 51 49 51 60 62 67 67 59 72 86 63 33 23 23 24 25 25 25 24 25 24 18 14 12 11 12 13
44 37 31 21 11 21 42 49 47 52 51 49 52 53 52 49 49 53 52 49 46 38 36 45 48 46 47 45 39 38 40 35 35 40 32 31 58 80 79 78 72 53 49 61 59 53 55 48 43 53 51 44 44 39 38 39 33 32 34 32 41 50 50 56 62 64 73 68 60 78 86 57 31 27 27 26 27 28 27 24 23 24 18 13 12 11 11 11
36 36 37 27 17 29 50 50 44 50 52 49 49 48 48 51 54 58 55 50 47 39 38 46 46 43 47 48 41 38 40 37 37 40 31 34 65 85 82 83 78 59 60 74 67 59 60 46 38 52 60 59 59 55 50 46 36 33 35 39 48 58 63 63 60 70 79 65 55 73 74 46 30 30 29 29 31 31 29 25 24 23 18 13 11 11 11 11
37 38 37 34 32 36 46 44 40 46 50 48 45 42 44 49 53 56 54 51 49 44 42 47 46 41 45 50 45 39 41 42 39 36 31 37 61 80 82 81 78 73 76 80 67 56 55 48 39 42 49 53 53 47 42 40 40 40 41 49 60 67 67 61 58 65 68 60 58 60 54 46 40 34 32 32 33 34 30 26 27 25 18 13 10 12 14 13
44 43 41 43 43 40 40 39 39 43 45 42 39 39 44 50 49 48 47 49 52 49 43 42 44 43 44 47 45 40 43 46 40 35 32 35 50 70 82 81 77 81 86 81 68 56 52 56 54 46 45 47 42 37 36 37 40 38 40 53 68 74 71 65 63 58 50 58 62 46 39 48 45 34 34 35 34 34 30 26 28 26 18 12 10 13 16 15
42 44 46 48 49 45 42 40 41 46 45 40 39 42 46 49 49 47 46 49 51 48 45 45 47 48 45 42 39 38 43 45 43 43 40 38 46 59 71 76 78 85 85 69 57 53 53 59 62 56 49 45 40 37 36 37 38 37 38 46 58 73 78 69 62 53 48 58 59 40 37 46 41 33 34 35 34 33 28 27 28 24 17 12 10 13 15 14
41 43 44 47 48 43 42 43 44 46 44 37 36 42 45 46 48 48 46 47 48 46 46 46 47 48 45 42 39 36 39 42 41 46 52 52 51 51 56 66 78 88 79 54 46 54 57 59 62 60 55 48 43 43 41 40 39 39 40 38 39 55 69 69 62 53 51 55 49 41 45 46 39 36 36 34 32 29 26 27 27 22 16 12 12 14 15 16
45 44 40 43 42 35 36 41 43 44 40 35 37 42 43 45 48 49 45 45 47 45 42 41 46 51 47 43 43 40 42 44 39 39 50 58 58 55 52 53 66 78 66 45 46 54 54 57 58 55 58 53 43 43 45 42 39 36 36 34 31 36 47 57 59 57 58 60 52 50 58 55 42 37 37 34 29 26 27 29 28 23 15 12 14 16 16 18
33 36 36 42 41 34 33 35 39 41 34 32 39 41 40 43 47 49 50 53 53 49 45 44 49 57 55 49 49 48 49 52 47 43 46 47 47 49 46 43 52 66 62 50 52 54 52 55 52 51 61 56 40 40 43 37 38 43 41 38 34 33 38 43 48 53 58 60 59 61 65 58 42 35 35 31 27 28 30 29 28 23 15 13 16 17 18 20
28 31 33 46 45 33 34 36 35 37 37 42 48 47 45 45 45 45 45 50 58 60 60 56 50 51 55 56 59 60 59 55 50 47 45 41 38 38 41 46 51 59 63 59 58 57 56 57 52 52 64 59 41 39 41 41 51 57 50 44 39 35 37 37 36 41 44 47 54 59 54 44 36 33 33 32 31 32 31 28 29 25 16 14 16 17 19 21
Wind_Speed
5 5 6 8 6 5 6 8 8 9 9 8 8 8 9 10 8 6 5 5 4 3 3 3 3 3 3 2 2 3 3 8 21 29 25 20 21 20 20 20 20 16 8 9 10 6 4 3 1 2 4 3 1 1 1 3 3 2 1 3 5 5 5 6 7 6 6 7 9 11 11 11 8 6 3 1 9 13 10 12 12 15 15 14 14 12 10 7
5 5 7 8 7 5 6 8 8 9 10 10 8 7 7 8 8 6 5 3 1 2 1 2 3 4 4 4 4 4 6 8 22 25 22 23 22 20 20 20 19 16 11 10 12 11 6 5 5 4 4 1 1 2 2 3 5 2 2 4 4 4 6 7 9 8 7 8 9 10 11 10 8 7 5 5 8 12 10 8 9 13 12 13 13 11 11 11
4 6 7 7 6 5 6 7 7 7 9 10 9 6 5 6 7 5 3 1 0 1 1 2 5 7 9 8 7 7 8 8 20 20 23 25 21 21 20 18 18 17 13 9 10 11 8 6 6 5 2 3 2 4 5 4 4 3 3 4 4 4 7 9 10 9 7 8 9 9 10 10 10 9 6 6 8 14 12 6 6 11 10 10 11 14 15 16
5 6 6 6 5 5 7 7 6 5 6 8 9 6 5 7 7 6 5 4 5 3 3 5 6 5 9 9 6 5 7 4 11 16 24 24 21 21 18 17 19 18 16 9 7 6 4 4 4 4 2 3 3 6 6 5 3 3 4 4 5 5 6 9 9 8 7 7 9 9 9 8 11 13 10 8 8 10 10 9 9 10 10 9 10 14 16 16
4 6 6 5 5 5 6 6 5 5 6 7 8 6 6 7 8 9 7 5 6 6 6 5 6 6 2 2 5 5 5 1 7 17 24 22 19 19 17 18 19 20 18 11 7 5 5 2 0 2 3 4 4 5 5 5 2 2 5 5 5 5 5 7 7 6 6 6 8 8 9 6 8 13 12 13 9 5 7 9 10 9 9 10 11 13 14 15
4 6 6 5 4 4 6 6 6 6 6 7 6 5 7 9 11 10 4 7 7 5 3 5 7 10 13 12 9 3 1 2 7 18 22 19 18 18 17 19 19 18 17 12 8 8 8 4 3 2 4 5 5 5 4 6 5 2 5 6 5 5 6 5 5 5 2 5 8 8 10 5 9 12 10 14 11 6 8 10 11 12 14 14 14 13 13 13
4 5 5 5 4 4 6 6 7 7 7 9 10 10 10 9 10 7 7 8 4 2 3 3 5 8 12 15 18 15 8 5 10 17 20 17 17 18 17 16 17 17 17 18 13 9 9 9 7 4 4 4 4 5 4 6 8 4 3 4 4 6 5 3 4 6 3 6 9 11 10 7 12 10 8 12 10 7 9 13 15 15 17 16 14 12 11 11
3 4 5 5 4 4 6 6 7 8 8 11 14 14 12 10 8 6 10 12 11 8 4 2 2 3 4 4 7 11 8 7 14 17 18 16 17 18 16 14 16 16 18 19 16 10 8 9 8 4 4 4 4 4 4 5 7 5 3 3 3 5 4 2 4 9 6 5 9 13 8 11 14 11 10 11 9 8 10 13 14 14 14 13 10 10 10 10
3 3 5 6 5 5 6 5 6 7 7 8 10 10 10 9 8 7 9 11 12 11 9 9 7 3 1 4 1 6 6 10 14 15 16 15 16 17 15 16 16 15 16 17 17 16 9 7 8 5 4 5 5 6 5 4 4 3 3 2 2 6 2 2 7 12 6 5 10 12 6 11 14 12 10 8 9 9 10 11 11 11 10 9 8 9 9 9
3 4 5 5 5 5 6 5 5 6 6 5 5 6 7 7 7 7 7 9 10 11 15 17 15 13 7 1 3 7 7 12 13 14 14 14 16 18 17 17 16 13 15 16 17 16 10 8 7 4 4 4 5 5 5 5 1 1 2 2 1 4 1 3 9 11 6 6 12 13 6 9 9 6 5 6 8 9 9 9 8 8 8 7 7 8 9 9
4 5 4 3 5 5 6 5 5 5 5 5 4 4 5 4 5 6 7 11 12 12 15 18 19 23 23 15 9 6 8 11 13 14 12 12 13 17 16 15 16 13 13 14 15 14 12 13 10 3 2 1 2 4 5 2 2 1 1 2 1 4 1 4 9 9 5 5 11 11 5 9 6 5 6 7 8 8 9 9 8 7 6 6 6 7 8 8
3 4 3 3 5 5 6 5 5 5 5 5 4 3 3 3 4 4 6 8 10 10 9 11 11 12 20 19 9 5 7 9 13 12 11 11 10 13 14 12 14 13 13 13 12 14 13 14 13 8 2 2 1 3 3 1 3 2 1 1 2 1 2 5 7 7 6 4 9 10 2 6 6 6 9 8 8 8 9 8 7 6 6 5 5 6 7 8
4 5 4 4 5 5 5 5 6 7 6 5 5 4 4 4 3 3 4 4 7 9 9 13 11 7 11 11 5 7 7 9 14 13 13 13 6 8 11 11 13 12 12 12 12 13 13 13 12 8 5 3 2 1 1 3 2 5 3 1 5 3 0 5 6 6 6 5 10 8 1 3 6 8 8 8 8 9 8 7 6 6 5 4 4 4 5 6
4 5 4 5 4 5 5 6 8 7 6 5 6 6 7 8 8 5 4 6 8 8 11 15 14 13 12 5 3 13 12 10 16 16 16 14 8 7 8 9 12 12 11 11 12 11 12 14 12 7 5 4 3 0 1 2 2 6 2 1 4 3 4 5 4 5 5 5 11 7 1 1 6 8 8 8 8 9 7 6 5 5 5 4 3 3 3 4
5 5 5 4 4 5 7 7 7 6 5 6 7 8 8 10 11 9 6 7 9 7 7 8 8 8 8 4 3 12 16 14 17 18 16 13 9 7 6 5 7 9 9 9 8 7 11 16 12 7 6 5 3 1 2 2 4 5 2 2 4 2 5 2 3 5 7 6 10 7 2 1 6 7 7 7 7 8 7 6 5 4 4 4 3 2 2 3
6 5 5 4 5 7 7 6 6 5 5 5 5 4 2 3 7 8 9 11 12 9 5 6 8 6 5 3 1 7 15 16 17 16 14 11 9 8 5 2 2 3 2 4 4 3 7 10 7 6 8 7 5 2 1 4 4 4 4 2 3 4 5 3 1 7 8 5 9 7 4 0 5 6 7 6 6 6 6 6 5 4 4 3 2 2 2 2
6 5 5 6 8 8 10 12 14 14 13 12 11 7 5 4 3 3 5 5 8 10 10 10 9 7 6 4 2 6 12 14 16 17 15 10 8 10 6 2 1 2 3 4 8 4 3 4 1 3 6 8 8 5 3 4 4 3 4 3 4 5 5 5 3 6 7 4 6 7 4 3 6 6 7 5 5 5 6 6 4 3 2 2 2 2 2 3
6 5 6 9 11 14 18 20 20 19 17 17 18 18 18 17 13 12 9 5 2 3 9 12 8 5 4 7 5 7 11 11 13 17 16 9 7 10 6 3 1 4 4 5 11 9 5 4 2 3 6 8 8 7 5 2 4 4 4 3 5 6 5 5 5 5 5 3 3 6 5 4 8 5 6 6 4 5 5 5 4 3 2 2 2 2 3 5
5 4 8 12 16 20 19 16 13 10 7 7 7 9 12 14 17 21 23 17 6 1 3 7 7 3 2 6 8 10 9 7 9 18 19 13 12 10 5 3 4 2 1 3 7 8 5 3 4 5 6 8 7 6 4 3 5 5 5 3 5 7 5 5 7 6 5 4 4 4 5 3 7 5 6 5 4 5 5 4 4 3 2 2 2 3 4 6
4 6 11 16 21 20 12 8 5 5 6 4 3 2 0 2 6 10 15 17 11 7 5 4 6 6 3 5 10 12 7 3 9 19 22 19 14 9 5 2 4 6 3 1 4 5 5 6 7 6 5 6 5 5 6 6 6 6 5 2 5 7 6 7 9 7 5 4 4 5 5 3 7 4 5 5 4 5 5 4 3 3 2 2 4 5 6 7
5 8 15 21 22 13 4 3 6 9 6 2 1 2 1 1 2 1 3 9 9 9 9 6 7 7 3 4 10 13 4 1 11 19 25 22 10 4 6 4 3 5 3 1 2 2 6 8 7 5 5 4 5 5 8 9 6 4 2 3 5 5 7 10 9 6 6 4 4 6 5 5 7 4 4 4 4 5 4 4 4 3 2 3 4 5 6 7
8 12 19 22 17 6 3 8 8 5 6 5 3 3 3 4 9 8 3 5 5 6 7 7 8 8 3 3 11 12 4 3 10 18 26 23 10 3 4 4 5 5 4 3 1 2 6 7 5 5 5 5 4 3 9 11 5 1 2 4 5 4 7 10 7 7 8 4 3 5 3 4 5 4 3 3 3 3 2 3 3 2 3 4 4 5 7 9
11 16 21 19 10 1 7 8 3 4 6 6 7 8 7 10 14 9 2 5 2 3 4 5 7 8 6 5 11 13 7 7 6 12 22 18 7 4 4 4 7 6 7 6 4 4 4 4 5 5 5 6 2 4 9 10 5 2 3 4 5 6 6 5 6 10 10 4 2 3 1 4 4 3 3 2 2 3 3 3 2 3 4 6 5 5 8 11
12 17 19 12 3 4 6 4 3 6 7 8 10 10 10 10 9 4 1 2 2 1 2 3 3 6 5 3 9 9 6 7 5 9 17 14 5 2 3 3 4 5 6 6 8 7 4 2 6 5 4 5 4 6 8 7 4 2 3 5 7 8 8 7 8 11 10 3 1 4 2 2 4 4 3 2 2 3 3 3 4 5 6 6 4 6 8 9
11 14 13 7 5 5 3 2 4 7 8 7 10 11 10 7 2 1 1 1 2 1 1 0 1 4 3 3 8 5 2 4 5 9 12 11 6 3 1 0 1 4 3 2 6 6 4 1 3 5 4 6 4 4 6 5 5 2 1 6 8 9 9 10 10 9 6 3 0 3 4 2 5 6 4 3 4 4 4 4 5 6 6 4 5 6 8 9
8 9 8 7 6 4 2 0 4 7 6 4 8 10 6 2 2 2 1 1 2 1 1 0 0 4 5 7 8 1 1 2 4 11 12 9 5 1 1 1 1 3 2 2 2 2 3 2 2 5 5 6 5 3 4 4 4 4 3 7 8 9 9 10 9 6 3 4 3 2 3 4 2 5 5 5 6 5 5 6 7 6 3 3 5 6 9 11
5 6 6 5 5 4 3 2 5 5 2 3 9 7 3 2 0 2 0 1 1 2 2 2 2 5 5 9 9 2 2 3 2 10 13 10 6 2 1 3 1 2 2 2 2 0 3 3 4 5 4 5 4 2 3 4 2 5 7 10 10 10 11 9 8 5 3 5 6 1 3 6 3 3 5 7 6 6 5 6 6 3 2 5 5 8 10 11
4 5 5 5 6 6 4 1 5 3 1 6 9 5 3 1 1 2 0 1 1 2 1 2 1 4 4 6 10 5 1 4 2 7 12 9 6 1 1 4 2 2 2 2 1 1 1 2 3 4 4 4 3 4 3 1 1 6 10 12 11 11 11 9 6 5 3 3 4 2 5 5 4 0 4 5 5 6 5 3 2 2 4 5 7 9 10 10
2 3 4 5 6 6 5 3 5 3 1 8 9 5 2 1 2 1 0 1 1 0 0 1 0 3 3 3 7 6 2 3 1 5 9 5 7 4 2 3 2 1 3 2 2 2 1 2 2 2 3 3 4 5 4 2 4 8 10 12 12 10 9 7 5 4 3 1 2 4 7 4 6 1 4 4 4 4 2 2 2 3 4 5 8 9 9 10
2 1 2 3 4 4 4 3 3 3 4 8 8 3 1 2 1 1 0 2 0 1 1 2 0 2 4 1 3 5 4 4 2 4 3 2 7 7 2 0 2 1 2 4 4 3 2 1 2 0 2 3 5 7 5 6 8 8 8 10 10 7 5 3 4 3 2 2 0 5 7 3 4 2 4 3 3 4 2 3 4 3 5 6 7 8 9 9
4 2 1 2 4 5 4 2 3 5 7 8 6 2 1 1 0 0 1 2 0 0 1 2 1 2 3 2 2 5 4 2 3 4 2 1 6 8 4 1 2 0 1 1 3 2 2 2 1 0 0 2 5 6 4 6 8 6 5 7 6 4 2 0 2 3 1 3 1 6 7 2 3 3 2 3 4 5 4 4 4 5 6 6 6 8 10 9
7 5 2 1 4 5 3 4 5 7 8 7 4 1 1 1 0 1 1 1 1 1 0 1 1 1 2 2 2 4 2 1 3 2 2 2 4 6 6 4 3 1 1 1 2 1 2 1 0 0 1 2 4 5 0 3 4 4 4 6 5 2 2 2 2 1 2 4 1 8 10 3 5 3 3 5 5 5 5 4 4 6 6 6 7 9 8 7
10 8 4 2 4 4 5 6 7 7 7 5 1 1 1 1 0 1 0 1 1 1 0 0 1 1 1 1 2 2 0 2 3 2 1 2 4 4 6 7 5 2 0 3 4 1 1 1 1 0 0 2 3 3 1 1 4 5 5 6 4 3 4 4 4 3 3 5 4 10 10 4 5 3 4 6 6 6 5 4 6 6 5 6 8 8 6 6
10 8 6 6 6 7 8 8 7 7 5 2 0 1 1 0 1 1 0 1 0 1 1 1 0 1 1 2 1 1 0 1 3 4 3 2 4 2 3 6 8 3 1 3 2 1 2 2 1 1 1 1 2 2 1 2 4 3 3 4 4 3 2 2 3 4 6 8 9 9 5 3 5 3 5 5 5 5 5 6 7 5 4 6 7 6 6 5
8 8 8 9 9 7 7 7 6 5 3 1 1 1 0 1 2 1 1 2 2 2 2 1 1 1 1 2 1 1 1 0 1 3 4 3 2 2 2 4 6 5 2 1 1 1 3 2 1 1 2 1 2 0 2 2 2 2 1 3 3 1 1 2 4 5 6 8 8 4 3 3 3 1 4 4 3 4 6 6 5 5 5 7 7 6 6 4
6 7 8 9 8 5 4 5 4 2 1 1 2 1 1 1 1 1 0 1 1 1 3 2 1 1 1 2 0 1 1 0 1 1 2 2 2 2 1 1 4 5 3 1 2 1 3 2 3 1 3 3 2 1 2 2 1 2 2 1 1 1 2 2 5 6 5 5 4 2 4 5 2 1 4 4 3 4 6 5 4 5 6 8 8 7 5 4
4 5 6 8 7 3 2 3 3 1 0 1 1 1 0 0 1 1 2 0 0 1 1 1 0 1 1 1 1 1 1 0 1 0 1 1 0 1 1 2 2 3 3 2 1 1 1 3 3 4 1 1 1 3 4 4 3 1 0 2 1 3 2 1 3 4 2 4 4 3 6 8 5 2 4 3 4 6 5 5 4 5 6 8 8 6 5 4
0 1 3 9 7 2 1 2 2 1 1 1 3 1 0 0 0 1 2 1 0 0 1 1 0 1 0 1 1 1 3 2 0 0 1 1 1 1 1 2 2 2 3 2 1 1 1 2 3 3 3 2 1 3 2 4 5 3 2 1 1 2 0 1 1 2 2 5 5 3 5 7 4 3 3 6 9 8 6 5 5 6 7 8 9 7 5 4
2 2 1 7 5 1 1 2 3 2 1 2 3 2 0 2 2 2 1 1 0 1 0 0 0 0 1 1 0 0 1 2 2 1 1 0 1 1 0 0 1 2 2 2 1 1 0 0 2 1 4 4 2 1 1 1 4 3 2 1 1 1 2 1 0 1 1 3 6 5 7 6 4 2 5 8 8 7 7 7 6 6 7 8 9 7 5 5
2 1 1 5 3 4 3 1 1 1 1 2 2 1 1 2 2 1 1 1 0 0 1 1 1 1 1 0 0 1 1 0 2 2 0 1 1 1 1 1 1 2 2 2 1 2 1 1 2 1 3 3 2 1 1 2 2 1 0 0 0 0 1 1 1 1 2 1 3 5 8 8 4 2 4 7 7 5 6 6 5 6 7 8 8 6 6 5
1 1 1 3 2 2 4 4 3 3 2 2 3 2 1 2 3 2 1 1 1 1 1 1 0 1 1 1 1 0 0 1 0 1 1 1 1 1 1 2 2 1 1 1 0 2 1 1 3 3 2 1 1 2 4 2 4 4 2 2 2 1 1 0 2 1 2 2 2 3 8 10 6 2 4 6 4 5 5 5 5 5 7 8 7 6 5 4
1 1 2 4 2 2 3 4 3 3 2 2 1 2 1 1 2 1 1 1 1 1 1 1 1 2 1 1 1 1 0 1 0 0 0 1 2 1 1 2 2 2 1 0 1 1 1 1 3 5 4 0 2 3 5 6 4 4 2 2 3 3 3 2 3 1 1 2 2 2 6 8 5 5 5 3 3 5 4 4 4 6 7 7 6 6 5 4
0 1 3 4 1 1 2 3 2 4 3 1 1 1 2 1 2 1 2 2 1 1 1 1 1 2 1 1 1 1 0 0 0 1 1 2 2 2 2 2 2 2 1 0 1 2 1 1 3 5 3 1 1 2 4 6 4 1 2 3 3 3 3 3 1 1 0 2 2 2 5 7 5 5 2 2 3 6 4 3 4 5 5 6 6 6 5 4
1 0 2 5 3 2 1 2 3 3 2 2 2 2 1 1 2 1 1 1 1 1 1 2 1 1 1 1 1 1 1 0 1 1 1 1 1 1 1 3 2 1 1 0 1 1 0 1 1 4 4 2 2 3 2 2 1 2 2 4 4 4 4 3 2 2 1 5 6 3 6 8 5 4 5 6 6 8 6 2 3 4 5 6 5 5 4 4
1 1 0 4 6 3 0 1 3 5 3 3 4 2 1 2 1 1 1 1 1 2 1 2 1 2 2 1 1 1 1 0 0 1 1 1 1 1 0 1 1 2 3 2 1 1 1 1 1 2 3 4 4 4 3 2 2 2 3 5 5 6 7 4 2 2 2 5 7 5 9 12 11 11 10 8 8 10 8 3 3 4 5 6 5 4 4 4
0 1 1 0 5 4 1 1 2 5 5 4 3 2 3 2 1 1 2 1 1 1 1 1 1 1 2 1 1 1 2 1 1 0 1 1 2 1 2 3 1 1 3 3 2 0 1 3 3 5 5 5 5 7 6 5 5 6 4 6 7 7 8 4 2 3 4 3 6 10 12 17 20 17 12 10 10 10 8 5 5 5 5 6 5 4 4 4
0 1 1 1 1 2 3 2 3 4 4 4 2 3 4 3 2 1 1 1 1 1 1 1 0 2 3 2 2 2 3 2 1 1 1 1 2 2 3 4 3 3 3 2 2 2 1 3 4 5 8 8 8 12 12 8 8 11 9 7 8 8 8 7 7 10 4 1 8 13 10 14 20 19 15 13 11 9 7 6 6 6 5 5 5 5 6 5
0 1 1 1 0 1 1 2 3 4 4 3 1 2 4 4 3 3 0 1 1 2 1 1 1 4 3 2 1 2 2 2 2 2 0 1 2 3 3 3 3 6 5 3 3 2 1 4 1 1 7 10 10 14 14 10 10 11 10 9 8 10 12 12 14 14 6 4 13 16 12 15 20 20 17 14 11 8 6 6 5 5 5 6 5 6 6 5
1 2 0 1 1 1 1 0 3 5 5 3 1 2 4 6 4 2 1 1 1 2 2 1 3 6 4 3 1 1 2 2 2 1 1 2 2 2 3 2 2 5 4 3 3 2 1 2 1 1 8 11 12 14 12 9 9 10 11 11 10 10 14 15 16 14 10 13 19 20 20 20 20 19 17 13 8 5 5 5 5 6 6 6 6 7 7 6
1 2 1 0 3 3 2 1 3 4 2 1 1 2 3 6 6 2 1 2 2 3 3 2 3 5 4 4 2 1 1 1 0 2 3 3 2 2 2 1 3 4 4 3 2 1 1 0 1 1 6 10 10 9 8 7 9 11 12 12 11 11 11 13 14 11 10 15 18 17 18 20 16 13 11 9 6 4 6 7 6 6 6 6 6 7 7 6
1 2 3 2 3 1 1 1 1 2 2 0 1 3 3 5 7 4 2 1 0 2 3 3 5 6 3 2 4 1 2 3 2 1 2 2 1 2 1 1 3 5 4 2 1 1 2 1 1 2 4 7 4 4 7 8 8 11 14 14 13 12 10 10 10 8 9 12 14 11 12 14 10 6 6 7 6 6 8 8 7 6 5 6 7 7 7 6
3 1 1 2 2 1 1 1 1 1 1 1 1 3 1 3 6 6 2 0 2 2 1 1 4 5 2 3 4 2 2 3 3 2 1 1 0 1 2 2 3 4 4 3 1 1 1 1 2 2 3 6 4 7 10 10 8 7 9 9 11 11 10 10 9 9 12 11 8 8 11 12 9 6 8 10 9 8 8 6 6 7 6 6 7 7 6 5
Wind_Direction
92 116 131 129 124 101 84 74 70 74 77 88 107 132 155 165 168 161 150 135 118 107 85 64 69 87 106 112 106 88 14 36 44 38 37 12 353 354 356 1 3 6 360 346 343 307 261 227 79 354 258 213 38 15 354 345 340 318 309 31 45 35 40 35 33 30 357 351 348 347 352 356 1 27 36 15 79 80 72 72 71 70 70 74 81 85 88 90
101 122 136 131 130 111 87 80 76 73 69 75 91 119 150 169 179 175 171 172 214 248 264 306 318 283 257 243 256 317 317 19 42 36 19 6 4 6 6 9 10 13 11 6 355 346 3 28 19 324 279 85 20 352 22 348 350 351 356 46 57 37 54 54 44 31 9 357 341 353 356 353 4 9 11 21 64 66 56 67 83 80 74 79 79 76 73 61
113 127 135 134 134 109 86 81 78 76 66 63 71 99 142 165 171 169 180 193 171 177 137 358 331 276 247 238 249 297 305 8 38 24 2 3 9 12 13 15 19 17 13 10 345 349 7 352 340 322 341 64 39 40 40 1 346 5 21 57 49 32 68 60 46 34 10 359 351 2 355 345 17 26 16 20 46 47 34 27 72 85 78 78 75 68 65 58
119 124 131 137 135 103 84 79 77 76 63 56 54 68 123 150 156 150 140 103 75 64 28 18 2 298 237 237 254 301 303 350 36 3 353 2 8 12 17 19 23 16 5 354 318 311 303 302 334 343 48 57 54 59 39 23 7 24 34 61 35 15 70 58 48 35 3 11 8 359 348 353 46 48 36 40 49 38 29 36 61 85 84 82 78 70 68 65
115 119 129 137 130 101 87 88 87 75 59 55 43 49 112 135 146 141 122 53 2 343 2 30 33 44 116 260 278 273 283 328 12 350 351 0 8 13 20 22 24 17 4 346 311 301 291 263 321 336 63 37 40 64 28 28 25 64 59 63 41 19 70 60 51 41 4 21 17 357 342 333 64 58 48 63 71 49 37 51 63 76 77 79 77 73 72 69
113 117 133 139 129 107 98 101 94 82 63 48 44 76 112 125 143 138 68 353 336 336 42 64 52 66 80 68 51 39 111 86 352 344 349 0 13 17 20 22 24 19 12 9 6 15 7 23 70 16 70 57 41 53 20 21 21 80 75 59 54 48 74 68 53 65 45 31 16 355 339 337 83 73 63 73 79 75 61 61 65 66 68 72 73 73 73 71
115 119 135 140 133 118 106 107 100 90 71 59 74 96 107 118 134 119 33 22 34 61 132 117 67 71 85 82 68 61 74 61 351 342 348 6 22 19 21 24 25 24 24 26 22 31 32 34 47 28 66 69 43 49 23 29 41 61 78 53 68 75 84 105 61 51 63 51 16 349 350 50 88 86 78 80 87 88 78 76 76 76 75 76 76 75 76 77
110 118 139 148 148 132 108 107 103 94 87 81 84 89 97 103 110 89 49 53 62 69 107 112 63 71 94 111 71 60 62 8 343 340 347 11 25 19 23 28 27 30 32 31 25 32 40 32 30 19 70 57 29 48 9 26 57 51 48 33 92 101 78 105 57 33 47 62 14 349 15 83 93 94 88 89 101 101 96 93 89 89 85 84 83 82 83 83
103 121 148 155 156 137 111 108 103 96 102 98 84 81 90 92 88 75 52 46 50 62 75 68 56 58 233 251 334 63 29 341 337 340 347 5 18 20 32 29 23 37 41 36 34 38 40 28 19 17 72 73 55 56 8 32 67 31 40 351 91 109 76 78 47 26 32 49 13 344 10 109 117 101 86 95 111 110 107 101 97 96 92 89 86 82 82 81
110 141 157 151 151 136 117 113 102 95 106 108 88 77 85 86 71 61 52 46 57 75 78 74 67 62 59 347 73 70 357 340 346 345 350 1 13 26 37 30 25 43 50 42 39 39 36 25 8 358 64 75 67 57 29 46 45 336 58 326 21 120 148 86 56 27 7 26 11 339 4 108 128 99 90 119 122 120 113 105 103 103 99 101 97 87 80 75
109 150 162 138 140 132 117 109 101 100 108 107 92 82 82 74 48 45 62 65 74 90 85 80 76 70 67 63 68 58 348 349 357 349 358 5 11 29 32 27 30 44 58 54 43 33 23 16 17 29 58 46 59 67 63 56 264 294 123 233 140 154 171 65 62 31 357 16 1 335 29 87 70 71 120 143 136 128 118 114 112 107 106 104 101 94 83 73
102 138 142 127 134 120 110 107 106 108 107 105 94 87 64 37 22 37 77 73 68 80 82 76 77 75 67 61 56 21 350 359 4 357 15 13 8 33 32 28 36 46 63 62 45 33 21 16 34 53 4 298 125 98 92 251 256 9 352 189 62 177 155 77 71 33 6 16 354 333 39 81 58 98 131 144 141 131 122 120 117 111 108 100 97 97 88 79
102 124 133 133 128 113 110 108 111 108 101 99 89 79 51 34 32 48 79 63 55 71 80 74 70 76 70 65 45 25 19 13 13 11 26 28 25 44 38 39 46 54 66 65 54 39 21 16 38 61 24 8 111 125 155 244 274 39 14 9 22 331 330 68 62 24 14 20 1 351 352 77 97 123 139 149 144 137 130 125 123 116 108 101 99 100 98 93
115 124 135 129 115 109 111 111 110 102 95 96 88 80 69 65 65 67 84 66 64 79 92 88 76 70 71 94 73 37 31 20 20 17 19 27 43 57 45 43 49 58 70 68 58 42 32 35 42 68 48 42 106 181 227 212 22 34 356 332 42 338 332 44 68 13 22 18 4 7 318 110 128 142 149 156 154 144 133 126 127 121 118 120 123 127 120 114
121 128 127 119 114 113 113 112 107 95 90 94 95 88 78 77 65 61 85 72 62 66 84 77 55 69 78 103 99 32 25 21 18 12 6 13 24 27 23 26 37 54 72 77 67 56 61 58 49 52 33 31 94 195 202 106 43 33 8 7 40 341 320 20 129 28 25 1 358 7 308 131 136 152 152 161 166 145 127 127 128 124 129 133 146 161 154 156
124 128 119 120 125 122 117 113 108 99 96 90 93 89 74 72 41 52 84 75 60 55 56 20 17 80 97 70 88 17 22 20 12 7 359 3 6 354 1 45 40 29 74 88 83 127 100 76 62 63 36 22 28 310 161 75 26 27 23 345 356 346 316 307 78 33 29 3 350 349 302 330 129 147 151 165 165 139 125 128 128 136 143 141 170 185 186 217
128 120 114 129 131 123 115 106 99 94 91 90 88 81 73 62 18 66 95 65 57 61 61 33 30 91 84 36 35 360 7 7 9 7 356 354 0 360 8 74 94 246 238 40 32 21 68 56 55 80 44 35 23 1 73 51 346 355 1 330 337 335 306 308 345 15 33 38 345 322 310 78 112 138 147 155 157 139 127 129 140 150 147 158 202 227 233 268
128 115 123 134 131 125 117 106 98 93 90 91 90 87 80 73 71 75 57 29 18 52 55 31 19 102 70 23 13 341 339 349 9 7 358 359 357 353 342 325 338 216 213 44 30 17 23 24 36 73 37 39 33 26 65 24 317 328 328 323 332 321 301 313 328 345 14 18 313 304 313 87 112 135 139 140 150 138 129 134 147 147 160 199 238 261 264 286
125 123 137 139 137 133 122 108 100 92 79 77 83 84 78 71 68 60 47 47 53 14 48 9 2 110 89 11 351 334 322 317 4 8 6 6 347 335 310 324 36 67 144 65 36 23 28 41 41 45 26 23 26 30 41 316 295 292 286 306 330 316 302 317 325 334 354 331 304 302 312 95 119 131 130 135 146 133 133 140 144 158 183 236 268 265 283 302
145 143 146 145 145 140 120 98 78 18 343 339 343 329 335 91 60 42 35 47 56 60 68 19 32 84 78 6 350 348 330 300 23 11 5 359 335 325 339 346 60 50 51 94 44 31 37 60 50 26 10 6 356 352 357 332 285 266 268 320 327 304 302 320 319 323 354 345 297 291 312 98 120 126 127 139 147 135 145 155 158 176 195 265 274 284 307 315
159 153 151 151 151 144 97 21 348 340 339 347 325 317 300 334 69 127 41 51 48 51 71 59 65 83 58 3 358 354 333 51 33 11 4 4 338 300 349 353 52 46 59 131 96 67 45 55 50 11 353 345 318 313 346 337 285 249 284 331 323 310 314 310 305 324 352 335 281 298 328 101 118 124 132 150 157 151 165 171 170 181 215 255 278 300 313 308
153 152 154 155 156 149 353 335 338 13 61 63 63 67 67 89 118 142 143 85 41 21 69 68 65 71 41 28 8 354 337 20 23 9 3 4 10 21 344 17 56 34 39 75 120 68 54 52 29 354 339 318 273 292 349 338 305 175 33 333 323 334 323 301 300 332 332 305 277 312 335 113 117 111 117 135 135 131 127 137 161 187 231 255 277 294 306 312
149 156 158 159 162 221 324 334 359 90 82 84 93 91 104 121 133 145 129 108 96 351 62 56 54 47 23 36 10 3 39 35 4 3 358 355 18 30 338 37 65 47 37 49 58 54 61 44 2 338 308 309 314 38 5 341 335 57 38 351 324 334 336 305 309 323 315 299 284 305 321 124 124 112 101 85 92 109 103 116 177 205 229 249 274 312 322 322
152 162 165 169 202 293 316 350 97 97 91 115 113 112 130 135 140 146 50 118 107 84 84 46 62 49 33 35 357 357 61 49 6 0 360 1 5 321 341 38 57 64 60 67 83 82 77 25 342 314 296 328 3 38 16 346 347 48 64 11 330 324 327 303 306 317 314 309 318 319 309 164 171 174 158 145 151 156 154 185 217 225 235 255 306 337 326 323
156 168 178 204 259 284 310 51 107 102 94 102 113 128 137 139 170 351 2 165 86 106 159 139 114 44 29 358 352 348 91 55 35 15 6 14 5 314 31 39 4 56 64 71 88 87 72 63 303 313 342 6 11 37 25 354 334 290 66 9 330 310 311 302 306 318 318 298 318 355 324 243 176 186 182 169 191 190 187 216 238 241 246 287 335 334 325 325
166 183 202 230 251 260 286 287 139 120 93 91 133 148 149 160 251 349 341 190 64 351 317 122 241 16 360 341 346 348 112 22 32 26 21 19 8 224 77 336 112 64 28 18 73 99 36 11 335 350 1 12 16 50 43 15 339 299 311 344 322 305 305 297 302 312 309 295 295 34 358 315 204 190 185 175 202 207 194 217 238 242 259 339 344 334 332 326
187 205 219 234 239 240 277 265 168 144 75 154 158 159 165 189 266 20 297 137 46 281 346 16 332 9 359 347 358 115 123 321 327 28 21 7 349 231 42 14 91 73 52 49 40 54 13 13 17 5 1 20 17 5 25 35 352 289 305 322 310 297 290 279 288 281 259 301 294 93 28 312 273 190 182 178 201 217 211 226 234 243 334 354 339 331 330 325
203 217 230 240 237 236 260 227 163 173 337 174 172 166 163 177 330 346 343 108 336 266 2 19 340 23 3 354 21 77 144 310 311 6 354 360 8 308 74 34 32 37 61 137 116 320 360 36 23 357 2 24 360 314 320 42 242 272 296 307 293 281 271 259 263 263 267 335 302 352 20 310 282 173 179 185 203 216 217 238 262 342 347 343 330 323 325 328
193 226 246 243 236 231 234 210 183 209 191 171 174 173 182 312 313 335 359 206 285 297 47 337 257 19 341 338 33 57 36 1 42 329 329 9 34 36 100 34 351 347 360 33 128 172 123 38 344 358 23 353 319 301 288 231 234 268 291 297 289 278 259 239 228 241 274 316 278 355 24 333 297 291 173 193 216 217 228 284 290 320 331 328 317 312 323 333
29 283 257 226 211 201 201 197 197 194 163 170 178 190 283 326 304 33 342 242 343 67 308 348 275 308 322 309 53 33 27 34 11 322 322 71 27 25 100 24 309 224 1 32 71 118 140 33 298 40 54 307 291 283 256 222 241 270 297 301 298 283 250 220 202 199 268 256 223 12 26 22 309 267 152 173 193 180 218 276 282 304 315 311 311 321 336 340
31 23 288 216 186 174 177 180 177 163 157 169 178 191 304 305 287 56 231 234 14 359 317 28 6 300 350 69 60 9 19 34 356 354 13 54 15 17 39 8 338 359 163 61 61 93 174 194 240 102 328 287 295 292 227 205 249 285 308 310 314 288 241 285 215 159 279 270 74 9 2 26 266 262 131 152 163 161 200 249 283 296 300 304 322 340 344 343
39 36 25 219 193 184 169 155 151 152 161 171 174 176 280 280 24 98 206 253 326 352 61 76 37 342 20 70 40 4 5 333 353 22 13 30 37 29 43 40 344 343 119 344 12 119 200 211 161 151 281 282 310 320 337 179 274 319 334 334 347 337 360 1 307 164 244 249 33 352 336 300 245 251 147 167 182 193 201 214 265 280 294 316 337 343 345 345
38 32 36 100 172 163 134 139 145 152 162 161 175 244 264 278 236 126 72 334 310 328 169 173 11 299 272 65 30 360 278 265 330 348 277 84 80 72 75 55 7 324 201 338 339 316 300 330 316 161 310 322 349 359 20 334 326 349 1 359 17 20 5 348 325 327 276 257 304 320 311 280 264 253 171 174 183 189 190 201 237 255 293 330 343 344 343 341
41 40 62 88 102 115 120 131 142 151 151 124 286 262 353 358 213 232 222 87 127 171 132 116 212 253 351 68 63 322 194 235 315 343 347 50 71 57 64 42 19 5 293 327 346 314 295 292 279 273 273 312 27 65 180 273 313 339 20 29 52 68 29 317 315 321 300 293 301 299 279 263 291 263 172 172 169 168 184 211 228 249 305 336 343 339 339 337
53 54 68 76 78 93 115 134 145 147 137 82 265 237 75 162 171 198 202 134 122 159 148 146 238 235 63 82 137 255 131 173 321 1 17 30 38 14 6 10 14 14 335 318 25 302 273 246 184 7 2 47 60 286 247 276 293 289 67 68 51 80 191 249 264 261 273 291 299 287 227 235 271 157 147 157 164 180 210 229 257 295 321 342 341 335 339 340
59 52 54 53 53 67 104 139 150 130 127 268 269 218 152 176 159 24 359 136 127 144 148 159 261 256 170 141 147 273 193 198 323 3 53 51 35 44 80 34 8 20 42 16 10 360 295 261 163 95 14 33 57 354 331 356 294 291 357 35 34 122 165 235 266 263 263 275 284 301 287 285 333 72 176 175 199 233 250 271 294 311 331 344 336 332 343 348
53 51 48 31 27 44 99 170 182 137 230 297 22 121 159 229 274 6 16 11 144 100 159 173 324 353 152 129 106 330 318 335 280 305 101 126 69 29 74 100 17 22 73 98 29 85 307 282 208 172 106 348 32 62 32 1 339 347 14 281 313 108 131 208 277 297 302 275 277 305 300 301 326 308 216 216 292 288 291 306 305 317 337 338 331 334 348 353
358 104 61 21 12 29 120 187 198 222 269 63 85 105 281 184 114 39 15 322 102 62 216 197 41 81 39 359 137 308 333 360 335 325 96 152 260 316 21 85 54 35 84 101 72 116 200 287 246 178 139 155 121 67 46 339 340 22 130 224 351 99 241 297 306 308 311 303 298 295 304 297 270 262 301 316 308 299 303 313 321 332 339 337 333 335 343 349
242 223 63 10 5 65 137 217 230 255 260 111 122 158 116 91 91 69 28 323 343 56 62 85 22 103 49 4 181 276 357 17 343 322 97 22 305 301 310 94 101 91 79 75 41 326 215 157 273 219 119 134 164 92 133 251 339 6 87 100 76 158 214 238 312 253 226 299 306 309 320 303 227 245 329 305 288 300 322 332 338 341 341 338 333 332 340 342
271 231 14 1 40 94 60 16 309 2 50 81 114 152 123 113 115 94 43 343 249 157 49 63 186 153 98 98 236 19 74 36 324 313 68 21 310 17 46 43 88 82 52 59 37 317 297 211 274 336 88 119 172 309 323 161 132 91 171 161 56 206 149 160 212 171 164 244 293 310 308 286 259 338 310 270 274 314 337 341 338 337 340 336 331 332 337 334
288 187 354 356 136 123 34 41 35 39 88 78 72 75 51 131 121 112 92 351 288 190 82 35 52 122 102 122 148 52 257 227 335 341 346 46 50 30 35 36 48 51 21 58 94 316 308 272 290 297 298 242 158 356 351 30 106 122 156 171 161 141 99 328 283 159 129 185 206 285 291 280 276 269 239 249 300 342 348 354 342 334 336 331 328 329 329 330
295 204 336 351 184 224 358 61 38 11 79 77 50 62 48 127 120 131 170 174 263 222 163 87 39 44 54 69 110 120 249 224 147 321 259 85 59 34 46 41 56 77 49 75 121 80 39 297 284 277 277 40 75 17 15 27 60 102 128 139 134 151 169 216 269 259 204 226 206 232 264 273 255 189 208 256 348 355 5 22 350 329 330 326 322 326 326 325
14 164 359 7 153 239 21 90 59 23 66 114 273 33 27 73 108 144 206 196 222 256 150 141 13 29 39 25 105 138 78 297 130 55 96 103 66 47 60 57 70 95 87 172 130 84 86 216 252 270 268 116 60 348 20 24 27 83 182 177 159 173 177 175 191 55 312 233 208 217 251 267 246 191 217 330 354 349 2 38 355 326 321 321 316 320 324 318
55 54 14 18 14 333 356 126 118 88 107 143 121 84 16 23 66 97 214 183 224 284 128 132 86 94 91 2 12 105 68 47 92 68 87 112 82 354 17 49 54 60 66 94 56 32 218 189 259 297 305 325 334 334 1 8 308 241 208 182 175 148 111 89 95 88 313 223 195 201 256 262 252 252 309 330 335 334 336 22 5 325 311 316 311 314 318 315
85 351 19 34 27 39 156 208 135 128 145 133 112 140 165 72 48 289 328 59 342 330 94 112 43 84 93 27 16 62 61 183 109 88 74 74 94 251 283 82 52 48 75 72 24 325 256 266 281 303 324 328 318 310 325 340 281 252 157 164 176 154 145 144 133 149 250 221 189 207 260 273 284 291 303 316 323 323 321 336 347 316 309 312 305 311 316 312
120 353 205 359 21 52 76 309 104 122 151 150 125 168 169 114 134 276 349 10 290 337 82 118 37 76 95 122 184 177 172 174 46 68 208 142 127 157 168 164 172 77 85 70 47 41 269 269 247 237 244 262 277 281 299 327 297 278 237 192 187 173 173 163 133 215 229 224 227 238 254 276 288 293 300 312 315 313 313 323 326 314 311 305 297 307 310 307
244 242 187 224 343 41 55 49 89 113 156 168 138 148 149 121 133 157 355 339 234 307 37 60 78 157 139 152 204 193 167 153 105 104 239 156 108 105 156 174 184 163 133 108 120 126 276 265 244 238 247 253 269 279 288 297 277 269 264 226 186 174 177 172 201 229 233 357 269 256 251 271 284 291 300 306 306 306 308 317 318 308 301 298 299 307 303 304
358 180 181 193 114 63 64 105 114 103 109 116 83 127 140 137 160 176 110 21 313 259 227 42 243 208 169 130 169 166 154 186 192 167 181 184 136 135 172 190 170 157 148 149 167 140 281 268 252 250 265 267 271 274 275 272 259 255 258 247 208 182 182 196 224 235 221 228 258 268 278 278 281 288 294 296 297 300 304 307 302 291 292 300 304 301 296 297
68 91 250 276 95 93 320 337 117 109 97 94 113 166 165 166 174 178 115 111 264 237 206 175 204 201 180 132 108 180 174 196 227 217 150 168 193 182 188 200 149 157 168 171 170 156 205 249 317 303 283 283 278 272 265 255 257 258 254 253 243 213 198 209 234 239 226 236 253 270 281 277 275 280 285 287 283 279 289 298 294 293 300 304 298 291 287 286
160 137 150 116 87 79 348 344 120 129 108 50 145 172 181 180 178 172 141 169 190 183 186 180 153 152 145 149 172 233 111 101 213 227 167 159 205 217 207 199 130 159 202 184 150 171 190 236 30 351 299 293 280 269 257 243 257 268 266 259 253 246 228 225 238 239 234 246 255 264 274 275 272 270 269 269 269 279 293 295 293 296 301 297 287 281 280 279
138 151 152 118 92 54 351 29 92 136 140 244 193 160 195 201 178 153 116 51 41 151 174 159 133 118 96 174 198 184 55 68 89 119 139 151 197 190 178 87 108 147 188 186 130 164 174 269 341 40 318 293 286 295 286 280 278 274 272 266 253 248 240 227 229 219 211 238 257 263 265 269 272 267 259 267 281 292 294 295 295 291 284 282 282 274 269 274
118 128 200 99 84 314 293 104 336 317 154 250 150 132 193 197 152 133 116 101 60 64 31 56 131 134 130 188 196 161 68 68 88 81 25 6 326 107 109 80 87 140 167 156 142 163 143 276 325 33 300 279 325 337 312 311 314 281 260 250 236 234 238 236 238 227 213 223 250 256 253 263 282 296 285 286 293 291 290 294 292 287 281 275 270 263 263 274